This is the latest recevied weather packets stored in our database for station/object KD0OXW. If no packets are shown the sender has not sent any weather packets the latest 10 day(s).
| Time | Temp. | Humidity | Pressure | Rain* | Wind** | Luminosity | Snow |
|---|---|---|---|---|---|---|---|
| 1777398512 | 11.11° C | 50% | 1012.2 hPa | 0 mm | - | - | - |
| 1777398212 | 10.56° C | 52% | 1012.2 hPa | 0 mm | - | - | - |
| 1777397912 | 10.56° C | 53% | 1012.2 hPa | 0 mm | - | - | - |
| 1777397612 | 10.56° C | 51% | 1012.4 hPa | 0 mm | - | - | - |
| 1777397312 | 10.56° C | 55% | 1012.4 hPa | 0 mm | - | - | - |
| 1777397012 | 10.56° C | 57% | 1012.4 hPa | 0 mm | - | - | - |
| 1777396712 | 10.56° C | 58% | 1012.5 hPa | 0 mm | - | - | - |
| 1777396412 | 10.56° C | 58% | 1012.3 hPa | 0 mm | - | - | - |
| 1777396112 | 10° C | 59% | 1012.5 hPa | 0 mm | - | - | - |
| 1777395812 | 10° C | 58% | 1012.4 hPa | 0 mm | - | - | - |
| 1777395512 | 10° C | 59% | 1012.4 hPa | 0 mm | - | - | - |
| 1777395212 | 10° C | 61% | 1012.4 hPa | 0 mm | - | - | - |
| 1777394912 | 10° C | 64% | 1012.3 hPa | 0 mm | - | - | - |
| 1777394612 | 10° C | 61% | 1012.4 hPa | 0 mm | - | - | - |
| 1777394312 | 9.44° C | 66% | 1012.5 hPa | 0 mm | - | - | - |
| 1777394012 | 9.44° C | 64% | 1012.6 hPa | 0 mm | - | - | - |
| 1777393712 | 8.89° C | 65% | 1012.6 hPa | 0 mm | - | - | - |
| 1777393412 | 8.89° C | 68% | 1012.5 hPa | 0 mm | - | - | - |
| 1777393113 | 8.89° C | 69% | 1012.6 hPa | 0 mm | - | - | - |
| 1777392812 | 8.89° C | 66% | 1012.5 hPa | 0 mm | - | - | - |
| 1777392512 | 8.89° C | 68% | 1012.5 hPa | 0 mm | - | - | - |
| 1777392212 | 8.33° C | 69% | 1012.5 hPa | 0 mm | - | - | - |
| 1777391913 | 8.33° C | 70% | 1012.6 hPa | 0 mm | - | - | - |
| 1777391612 | 8.33° C | 69% | 1012.4 hPa | 0 mm | - | - | - |
| 1777391313 | 7.78° C | 73% | 1012.4 hPa | 0 mm | - | - | - |
* Rain latest hour (hover to see other rain measurements)
** Current wind speed in m/s (hover to see current wind gust speed)